| time (UTC) | temp F | wind direction | speed knots | gust knots | rain 1hr in | rain 24hr in | rain mn in | humidity % | barometer mb |
| 20260831114506 | 73 | 355 | 1.7 | 3.5 | 0.00 | 0.00 | 0.00 | 60 | 1005.5 |
| 20260831113007 | 73 | 246 | 2.6 | 5.2 | 0.00 | 0.00 | 0.00 | 60 | 1005.3 |
| 20260831111501 | 74 | 150 | 3.5 | 7.0 | 0.00 | 0.00 | 0.00 | 58 | 1005.0 |
| 20260831110106 | 74 | 202 | 1.7 | 5.2 | 0.00 | 0.00 | 0.00 | 58 | 1004.9 |
| 20260831104558 | 74 | 204 | 1.7 | 7.0 | 0.00 | 0.00 | 0.00 | 57 | 1004.9 |
| 20260831103056 | 74 | 167 | 1.7 | 7.0 | 0.00 | 0.00 | 0.00 | 57 | 1005.0 |
| 20260831101555 | 75 | 159 | 4.3 | 7.8 | 0.00 | 0.00 | 0.00 | 56 | 1004.9 |
| 20260831100053 | 75 | 133 | 1.7 | 7.8 | 0.00 | 0.00 | 0.00 | 57 | 1004.8 |
| 20260831094551 | 75 | 159 | 1.7 | 5.2 | 0.00 | 0.00 | 0.00 | 56 | 1004.6 |
| 20260831093049 | 76 | 157 | 0.0 | 2.6 | 0.00 | 0.00 | 0.00 | 55 | 1004.6 |
| 20260831091551 | 77 | 68 | 0.9 | 2.6 | 0.00 | 0.00 | 0.00 | 53 | 1004.5 |
| 20260831090041 | 78 | 134 | 1.7 | 6.1 | 0.00 | 0.00 | 0.00 | 51 | 1004.5 |
| 20260831084538 | 78 | 95 | 1.7 | 7.0 | 0.00 | 0.00 | 0.00 | 50 | 1004.3 |
| 20260831083039 | 79 | 158 | 3.5 | 10.4 | 0.00 | 0.00 | 0.00 | 49 | 1004.3 |
| 20260831081536 | 79 | 160 | 5.2 | 9.6 | 0.00 | 0.00 | 0.00 | 49 | 1004.2 |
| 20260831080029 | 80 | 172 | 6.1 | 13.9 | 0.00 | 0.00 | 0.00 | 48 | 1004.2 |
| 20260831074527 | 80 | 207 | 6.1 | 12.2 | 0.00 | 0.00 | 0.00 | 47 | 1004.2 |
| 20260831073025 | 81 | 159 | 6.1 | 13.0 | 0.00 | 0.00 | 0.00 | 47 | 1004.2 |
| 20260831071522 | 81 | 190 | 5.2 | 9.6 | 0.00 | 0.00 | 0.00 | 46 | 1004.2 |
| 20260831070025 | 82 | 164 | 6.1 | 11.3 | 0.00 | 0.00 | 0.00 | 45 | 1004.1 |
| 20260831064517 | 82 | 130 | 5.2 | 12.2 | 0.00 | 0.00 | 0.00 | 45 | 1004.1 |
| 20260831063014 | 83 | 183 | 7.0 | 13.9 | 0.00 | 0.00 | 0.00 | 44 | 1004.1 |
| 20260831061512 | 83 | 165 | 6.1 | 13.9 | 0.00 | 0.00 | 0.00 | 44 | 1004.1 |
| 20260831060010 | 83 | 167 | 5.2 | 13.9 | 0.00 | 0.00 | 0.00 | 44 | 1004.0 |
| 20260831054507 | 84 | 167 | 4.3 | 12.2 | 0.00 | 0.00 | 0.00 | 44 | 1003.9 |
| 20260831053005 | 84 | 147 | 6.1 | 14.8 | 0.00 | 0.00 | 0.00 | 44 | 1003.7 |
| 20260831051501 | 84 | 116 | 7.0 | 18.2 | 0.00 | 0.00 | 0.00 | 43 | 1003.4 |
| 20260831050059 | 85 | 168 | 7.0 | 16.5 | 0.00 | 0.00 | 0.00 | 43 | 1003.2 |
| 20260831050003 | 85 | 136 | 7.8 | 17.4 | 0.00 | 0.00 | 0.00 | 43 | 1003.1 |
| 20260831044605 | 85 | 139 | 8.7 | 15.6 | 0.00 | 0.00 | 0.00 | 42 | 1003.0 |
| 20260831043058 | 86 | 161 | 7.8 | 15.6 | 0.00 | 0.00 | 0.00 | 41 | 1002.8 |
| 20260831041644 | 86 | 111 | 7.8 | 15.6 | 0.00 | 0.00 | 0.00 | 39 | 1002.8 |
| 20260831040059 | 87 | 165 | 8.7 | 19.1 | 0.00 | 0.00 | 0.00 | 38 | 1002.7 |
| 20260831034600 | 87 | 125 | 10.4 | 19.1 | 0.00 | 0.00 | 0.00 | 38 | 1002.6 |
| 20260831033057 | 88 | 143 | 8.7 | 14.8 | 0.00 | 0.00 | 0.00 | 38 | 1002.5 |
| 20260831031557 | 88 | 180 | 7.0 | 15.6 | 0.00 | 0.00 | 0.00 | 38 | 1002.5 |
| 20260831030100 | 88 | 185 | 6.1 | 17.4 | 0.00 | 0.00 | 0.00 | 38 | 1002.3 |
| 20260831024616 | 88 | 126 | 7.8 | 20.0 | 0.00 | 0.00 | 0.00 | 38 | 1002.1 |
| 20260831023054 | 88 | 108 | 7.8 | 13.9 | 0.00 | 0.00 | 0.00 | 38 | 1002.1 |
| 20260831021554 | 88 | 154 | 6.1 | 15.6 | 0.00 | 0.00 | 0.00 | 38 | 1001.8 |
| 20260831020053 | 89 | 178 | 5.2 | 10.4 | 0.00 | 0.00 | 0.00 | 37 | 1001.7 |
| 20260831014552 | 90 | 76 | 6.1 | 10.4 | 0.00 | 0.00 | 0.00 | 36 | 1001.5 |
| 20260831013107 | 91 | 144 | 5.2 | 10.4 | 0.00 | 0.00 | 0.00 | 34 | 1001.5 |
| 20260831011555 | 92 | 136 | 7.0 | 13.0 | 0.00 | 0.00 | 0.00 | 33 | 1001.4 |
| 20260831010116 | 93 | 153 | 3.5 | 11.3 | 0.00 | 0.00 | 0.00 | 32 | 1001.4 |
| 20260831004552 | 95 | 181 | 7.0 | 16.5 | 0.00 | 0.00 | 0.00 | 31 | 1001.3 |
| 20260831003050 | 95 | 173 | 7.0 | 14.8 | 0.00 | 0.00 | 0.00 | 30 | 1001.3 |
| 20260831001550 | 97 | 201 | 9.6 | 16.5 | 0.00 | 0.00 | 0.00 | 29 | 1001.3 |
| 20260831000107 | 97 | 136 | 7.8 | 17.4 | 0.00 | 0.00 | 0.00 | 28 | 1001.2 |
| 20260830234548 | 98 | 169 | 7.8 | 16.5 | 0.00 | 0.00 | 0.00 | 27 | 1001.2 |
| 20260830233048 | 98 | 204 | 7.0 | 17.4 | 0.00 | 0.00 | 0.00 | 27 | 1001.3 |
| 20260830231548 | 99 | 200 | 7.8 | 16.5 | 0.00 | 0.00 | 0.00 | 27 | 1001.2 |
| 20260830230053 | 99 | 184 | 6.1 | 19.1 | 0.00 | 0.00 | 0.00 | 27 | 1001.1 |
| 20260830224547 | 99 | 209 | 8.7 | 20.9 | 0.00 | 0.00 | 0.00 | 26 | 1001.1 |
| 20260830223116 | 100 | 158 | 6.1 | 17.4 | 0.00 | 0.00 | 0.00 | 26 | 1001.1 |
| 20260830221550 | 100 | 178 | 7.0 | 17.4 | 0.00 | 0.00 | 0.00 | 26 | 1001.1 |
| 20260830220043 | 100 | 164 | 8.7 | 14.8 | 0.00 | 0.00 | 0.00 | 25 | 1001.2 |
| 20260830214542 | 100 | 173 | 7.8 | 17.4 | 0.00 | 0.00 | 0.00 | 25 | 1001.4 |
| 20260830213043 | 100 | 172 | 7.0 | 13.0 | 0.00 | 0.00 | 0.00 | 26 | 1001.4 |
| 20260830211539 | 100 | 219 | 6.1 | 13.9 | 0.00 | 0.00 | 0.00 | 27 | 1001.5 |
| 20260830210034 | 100 | 219 | 7.8 | 16.5 | 0.00 | 0.00 | 0.00 | 27 | 1001.7 |
| 20260830204530 | 99 | 237 | 6.1 | 14.8 | 0.00 | 0.00 | 0.00 | 27 | 1002.0 |
| 20260830203031 | 99 | 180 | 7.8 | 16.5 | 0.00 | 0.00 | 0.00 | 27 | 1002.2 |
| 20260830201523 | 99 | 188 | 8.7 | 14.8 | 0.00 | 0.00 | 0.00 | 28 | 1002.3 |
| 20260830200020 | 98 | 111 | 9.6 | 20.9 | 0.00 | 0.00 | 0.00 | 28 | 1002.5 |
| 20260830194521 | 98 | 173 | 8.7 | 15.6 | 0.00 | 0.00 | 0.00 | 28 | 1002.6 |
| 20260830193016 | 98 | 228 | 5.2 | 17.4 | 0.00 | 0.00 | 0.00 | 29 | 1002.7 |
| 20260830191511 | 98 | 159 | 8.7 | 19.1 | 0.00 | 0.00 | 0.00 | 30 | 1002.8 |
| 20260830190011 | 98 | 182 | 7.8 | 20.0 | 0.00 | 0.00 | 0.00 | 30 | 1002.9 |
| 20260830184505 | 98 | 202 | 6.1 | 13.9 | 0.00 | 0.00 | 0.00 | 30 | 1003.1 |
| 20260830183003 | 97 | 182 | 7.8 | 17.4 | 0.00 | 0.00 | 0.00 | 31 | 1003.3 |
| 20260830181601 | 97 | 202 | 8.7 | 16.5 | 0.00 | 0.00 | 0.00 | 32 | 1003.6 |
| 20260830180058 | 96 | 169 | 7.0 | 16.5 | 0.00 | 0.00 | 0.00 | 32 | 1003.8 |
| 20260830174600 | 96 | 210 | 6.1 | 15.6 | 0.00 | 0.00 | 0.00 | 33 | 1003.9 |
| 20260830173054 | 95 | 144 | 7.0 | 13.0 | 0.00 | 0.00 | 0.00 | 35 | 1004.2 |
| 20260830171612 | 95 | 181 | 6.1 | 13.9 | 0.00 | 0.00 | 0.00 | 36 | 1004.2 |
| 20260830170047 | 93 | 188 | 7.8 | 17.4 | 0.00 | 0.00 | 0.00 | 37 | 1004.4 |
| 20260830164542 | 92 | 269 | 8.7 | 15.6 | 0.00 | 0.00 | 0.00 | 38 | 1004.4 |
| 20260830163047 | 91 | 238 | 7.0 | 13.9 | 0.00 | 0.00 | 0.00 | 40 | 1004.6 |
| 20260830161542 | 90 | 250 | 7.8 | 14.8 | 0.00 | 0.00 | 0.00 | 41 | 1004.6 |
| 20260830160032 | 89 | 227 | 6.1 | 13.9 | 0.00 | 0.00 | 0.00 | 43 | 1004.6 |
| 20260830154529 | 88 | 208 | 7.0 | 14.8 | 0.00 | 0.00 | 0.00 | 44 | 1004.6 |
| 20260830153025 | 87 | 205 | 6.1 | 13.0 | 0.00 | 0.00 | 0.00 | 45 | 1004.6 |
| 20260830151523 | 86 | 232 | 5.2 | 11.3 | 0.00 | 0.00 | 0.00 | 46 | 1004.7 |
| 20260830150020 | 85 | 193 | 4.3 | 12.2 | 0.00 | 0.00 | 0.00 | 47 | 1004.7 |
| 20260830144519 | 84 | 256 | 5.2 | 13.0 | 0.00 | 0.00 | 0.00 | 47 | 1004.7 |
| 20260830143016 | 83 | 235 | 6.1 | 10.4 | 0.00 | 0.00 | 0.00 | 47 | 1004.9 |
| 20260830141514 | 81 | 238 | 4.3 | 8.7 | 0.00 | 0.00 | 0.00 | 49 | 1005.0 |
| 20260830140013 | 80 | 249 | 4.3 | 8.7 | 0.00 | 0.00 | 0.00 | 51 | 1005.0 |
| 20260830134522 | 79 | 226 | 5.2 | 12.2 | 0.00 | 0.00 | 0.00 | 52 | 1004.8 |
| 20260830133009 | 77 | 226 | 3.5 | 8.7 | 0.00 | 0.00 | 0.00 | 54 | 1004.8 |
| 20260830131509 | 76 | 259 | 5.2 | 12.2 | 0.00 | 0.00 | 0.00 | 56 | 1004.6 |
| 20260830130013 | 75 | 193 | 3.5 | 7.8 | 0.00 | 0.00 | 0.00 | 57 | 1004.9 |
| 20260830124505 | 76 | 263 | 3.5 | 9.6 | 0.00 | 0.00 | 0.00 | 56 | 1004.7 |
| 20260830123009 | 75 | 209 | 3.5 | 8.7 | 0.00 | 0.00 | 0.00 | 56 | 1004.5 |
| 20260830121502 | 75 | 221 | 3.5 | 7.8 | 0.00 | 0.00 | 0.00 | 56 | 1004.6 |